IRIDIUM 33 DEB

Satellite information

Favourite Embed

Satellite Type and Status

DEBRISIN ORBIT

Key statistics

Satellite IRIDIUM 33 DEB at a glance.

Uptime

10221

Days in orbit

Revolutions

≈ 14.7

Per day

Orbit

LEO

Low Earth Orbit

Inclination

86.3

Latest

Satellite identification and parameters

Extended collection of information and parameters for IRIDIUM 33 DEB.

Object identification

Identified? True

Debris? True

Object name: IRIDIUM 33 DEB

International designator: 1997-051MQ

Object number (NORAD): 34870

Object ID (CCSDS): 34870

Country: UNITED STATES OF AMERICA (US)

Current information (Y/N): Y

RCS size: SMALL

Orbital parameters

Period: 97.702 minutes

Inclination: 86.3167 deg

SMA: 7026.874 km

Apoapsis: 662.44 km

Periapsis: 635.037 km

RAAN: 358.1372 deg

Eccentricy: 0.00194989

Argument of periapsis: 164.6747 deg

Mean anomaly: 225.7889 deg

Mean motion: 14.73871245 rev/day

Mean motion (dot): 0.0001257 rev/day2

B* drag term: 0.0019078295 1/REarth

Two-line elements (TLE)

Creation date: Sept. 8, 2025, 3:16 a.m.

Reference frame: TEME

Reference center: EARTH

Epoch: Sept. 7, 2025, 6:54 a.m. UTC

TLE line 0: 0 IRIDIUM 33 DEB

TLE line 1: 1 34870U 97051MQ 25250.28808345 .00012570 00000-0 19078-2 0 9998

TLE line 2: 2 34870 86.3167 358.1372 0019499 164.6747 225.7889 14.73871245874890

Live tracking on map

Real-time ground track for satellite IRIDIUM 33 DEB.

In-orbit conjunctions

A list of the most updated potential collisions computed for object IRIDIUM 33 DEB.

Target Orbit TCA Probability of collision Miss distance Type
SCOUT B-1 DEB SSO 2024-11-11 23:55:32 0.0005924194 162.0 (m) DEBRIS
CZ-2C R/B SSO 2024-10-12 14:24:46 0.0001936971 767.0 (m) ROCKET BODY

Associated space launch

Iridium provides global mobile telecommunications services using a constellation of 66 low earth orbit satellites in a 86.4° inclined orbit. Although 77 satellites were originally envisioned for the system and spawned the name based on the 77th element in the periodic table, the system has been scaled back. Motorola's Satellite Communications Group designed and manufactured the Iridium satellites with Lockheed Martin providing the LM-700A spacecraft buses.

IRIDIUM 33 DEB was lifted into orbit during the mission ‘Proton-K/17S40 | Iridium 27 to 33’, on board a Proton-K/17S40 space rocket.

The launch took place on Sept. 14, 1997, 1:36 a.m. from 81/23 (81L).

For more information about the launch, click the button.

Launch to space Proton-K/17S40 | Iridium 27 to 33
Proton-K/17S40 | Iridium 27 to 33

Agency: N/A

Status: Launch Successful

Launch date: Sept. 14, 1997, 1:36 a.m. UTC

Rocket: Proton-K/17S40

Launch pad: 81/23 (81L)

Location: Baikonur Cosmodrome, Republic of Kazakhstan

...

Latest news about this satellite

There are no fresh news available about this satellite. Check back as we update our databases every day.


Newsletter sign-up

Weekly statistics, charts and insights to help you stay on top of the space industry.